| time (UTC) | temp F | wind direction | speed MPH | gust MPH | rain 1hr in | rain 24hr in | rain mn in | humidity % | barometer mb |
| 20260906145050 | 74 | 140 | 0.0 | 0.0 | 0.00 | 0.00 | 0.00 | 51 | 1022.6 |
| 20260906144601 | 74 | 161 | 0.0 | 0.0 | 0.00 | 0.00 | 0.00 | 52 | 1022.7 |
| 20260906144050 | 74 | 178 | 0.0 | 0.0 | 0.00 | 0.00 | 0.00 | 52 | 1022.8 |
| 20260906143601 | 74 | 23 | 0.0 | 0.0 | 0.00 | 0.00 | 0.00 | 52 | 1022.7 |
| 20260906143151 | 73 | 34 | 0.0 | 0.0 | 0.00 | 0.00 | 0.00 | 53 | 1022.7 |
| 20260906143049 | 74 | 86 | 0.0 | 0.0 | 0.00 | 0.00 | 0.00 | 54 | 1022.8 |
| 20260906142633 | 74 | 108 | 0.0 | 0.0 | 0.00 | 0.00 | 0.00 | 54 | 1022.9 |
| 20260906141538 | 73 | 155 | 0.0 | 0.0 | 0.00 | 0.00 | 0.00 | 53 | 1022.8 |
| 20260906140036 | 73 | 101 | 0.0 | 0.0 | 0.00 | 0.00 | 0.00 | 53 | 1022.9 |
| 20260906134534 | 73 | 360 | 0.0 | 0.0 | 0.00 | 0.00 | 0.00 | 51 | 1023.2 |
| 20260906133031 | 73 | 173 | 0.0 | 0.0 | 0.00 | 0.00 | 0.00 | 55 | 1023.4 |
| 20260906131528 | 73 | 17 | 0.0 | 0.0 | 0.00 | 0.00 | 0.00 | 54 | 1023.7 |
| 20260906130026 | 73 | 19 | 0.0 | 0.0 | 0.00 | 0.00 | 0.00 | 54 | 1023.8 |
| 20260906124523 | 73 | 173 | 0.0 | 0.0 | 0.00 | 0.00 | 0.00 | 55 | 1024.1 |
| 20260906123037 | 73 | 185 | 0.0 | 0.0 | 0.00 | 0.00 | 0.00 | 54 | 1024.3 |
| 20260906121519 | 73 | 117 | 0.0 | 0.0 | 0.00 | 0.00 | 0.00 | 53 | 1024.5 |
| 20260906120017 | 72 | 28 | 0.0 | 0.0 | 0.00 | 0.00 | 0.00 | 56 | 1024.5 |
| 20260906114516 | 72 | 180 | 0.0 | 0.0 | 0.00 | 0.00 | 0.00 | 57 | 1024.7 |
| 20260906113012 | 71 | 20 | 0.0 | 0.0 | 0.00 | 0.00 | 0.00 | 59 | 1024.9 |
| 20260906111509 | 70 | 32 | 0.0 | 0.0 | 0.00 | 0.00 | 0.00 | 59 | 1025.1 |
| 20260906110006 | 70 | 185 | 0.0 | 0.0 | 0.00 | 0.00 | 0.00 | 60 | 1025.3 |
| 20260906104503 | 69 | 12 | 0.0 | 0.0 | 0.00 | 0.00 | 0.00 | 59 | 1025.4 |
| 20260906103001 | 69 | 176 | 0.0 | 0.0 | 0.00 | 0.00 | 0.00 | 62 | 1025.5 |
| 20260906101558 | 68 | 17 | 0.0 | 0.0 | 0.00 | 0.00 | 0.00 | 63 | 1025.5 |
| 20260906100100 | 68 | 23 | 0.0 | 0.0 | 0.00 | 0.00 | 0.00 | 64 | 1025.7 |
| 20260906094553 | 67 | 186 | 0.0 | 0.0 | 0.00 | 0.00 | 0.00 | 67 | 1026.0 |
| 20260906093057 | 66 | 61 | 0.0 | 0.0 | 0.00 | 0.00 | 0.00 | 68 | 1026.3 |
| 20260906091548 | 65 | 18 | 0.0 | 0.0 | 0.00 | 0.00 | 0.00 | 73 | 1026.2 |
| 20260906090058 | 64 | 77 | 0.0 | 0.0 | 0.00 | 0.00 | 0.00 | 77 | 1026.4 |
| 20260906084539 | 62 | 69 | 0.0 | 0.0 | 0.00 | 0.00 | 0.00 | 80 | 1026.7 |
| 20260906083038 | 61 | 31 | 0.0 | 0.0 | 0.00 | 0.00 | 0.00 | 83 | 1026.7 |
| 20260906081532 | 60 | 15 | 0.0 | 0.0 | 0.00 | 0.00 | 0.00 | 85 | 1026.6 |
| 20260906080028 | 59 | 360 | 0.0 | 0.0 | 0.00 | 0.00 | 0.00 | 87 | 1026.6 |
| 20260906074526 | 58 | 355 | 0.0 | 0.0 | 0.00 | 0.00 | 0.00 | 89 | 1026.5 |
| 20260906073022 | 57 | 355 | 0.0 | 0.0 | 0.00 | 0.00 | 0.00 | 91 | 1026.4 |
| 20260906071519 | 56 | 355 | 0.0 | 0.0 | 0.00 | 0.00 | 0.00 | 92 | 1026.4 |
| 20260906070017 | 55 | 238 | 0.0 | 0.0 | 0.00 | 0.00 | 0.00 | 92 | 1026.4 |
| 20260906064516 | 54 | 229 | 0.0 | 0.0 | 0.00 | 0.00 | 0.00 | 92 | 1026.3 |
| 20260906063021 | 53 | 230 | 0.0 | 0.0 | 0.00 | 0.00 | 0.00 | 93 | 1026.2 |
| 20260906061514 | 52 | 313 | 0.0 | 0.0 | 0.00 | 0.00 | 0.00 | 93 | 1026.2 |
| 20260906060014 | 52 | 315 | 0.0 | 0.0 | 0.00 | 0.00 | 0.00 | 92 | 1026.1 |
| 20260906054510 | 51 | 360 | 0.0 | 0.0 | 0.00 | 0.00 | 0.00 | 92 | 1026.1 |
| 20260906053009 | 51 | 360 | 0.0 | 0.0 | 0.00 | 0.00 | 0.00 | 92 | 1026.2 |
| 20260906051510 | 51 | 360 | 0.0 | 0.0 | 0.00 | 0.00 | 0.00 | 92 | 1026.4 |
| 20260906050008 | 51 | 360 | 0.0 | 0.0 | 0.00 | 0.00 | 0.00 | 92 | 1026.4 |
| 20260906044506 | 51 | 360 | 0.0 | 0.0 | 0.00 | 0.00 | 0.00 | 92 | 1026.4 |
| 20260906043006 | 51 | 360 | 0.0 | 0.0 | 0.00 | 0.00 | 0.00 | 91 | 1026.3 |
| 20260906041507 | 52 | 360 | 0.0 | 0.0 | 0.00 | 0.00 | 0.00 | 92 | 1026.2 |
| 20260906040014 | 51 | 360 | 0.0 | 0.0 | 0.00 | 0.00 | 0.00 | 91 | 1026.1 |
| 20260906034504 | 51 | 360 | 0.0 | 0.0 | 0.00 | 0.00 | 0.00 | 91 | 1025.9 |
| 20260906033004 | 51 | 360 | 0.0 | 0.0 | 0.00 | 0.00 | 0.00 | 91 | 1026.1 |
| 20260906031502 | 52 | 360 | 0.0 | 0.0 | 0.00 | 0.00 | 0.00 | 91 | 1026.7 |
| 20260906030001 | 52 | 360 | 0.0 | 0.0 | 0.00 | 0.00 | 0.00 | 90 | 1026.7 |
| 20260906024559 | 52 | 360 | 0.0 | 0.0 | 0.00 | 0.00 | 0.00 | 90 | 1026.4 |
| 20260906023059 | 52 | 360 | 0.0 | 0.0 | 0.00 | 0.00 | 0.00 | 90 | 1026.3 |
| 20260906021603 | 52 | 360 | 0.0 | 0.0 | 0.00 | 0.00 | 0.00 | 90 | 1026.3 |
| 20260906020105 | 52 | 360 | 0.0 | 0.0 | 0.00 | 0.00 | 0.00 | 89 | 1026.1 |
| 20260906014556 | 52 | 360 | 0.0 | 0.0 | 0.00 | 0.00 | 0.00 | 89 | 1026.4 |
| 20260906013104 | 52 | 360 | 0.0 | 0.0 | 0.00 | 0.00 | 0.00 | 89 | 1026.3 |
| 20260906011554 | 53 | 360 | 0.0 | 0.0 | 0.00 | 0.00 | 0.00 | 89 | 1026.2 |
| 20260906010054 | 53 | 360 | 0.0 | 0.0 | 0.00 | 0.00 | 0.00 | 89 | 1025.9 |
| 20260906004552 | 53 | 360 | 0.0 | 0.0 | 0.00 | 0.00 | 0.00 | 88 | 1026.0 |
| 20260906003051 | 53 | 360 | 0.0 | 0.0 | 0.00 | 0.00 | 0.00 | 88 | 1026.1 |
| 20260906001550 | 53 | 360 | 0.0 | 0.0 | 0.00 | 0.00 | 0.00 | 88 | 1026.1 |
| 20260906000100 | 53 | 360 | 0.0 | 0.0 | 0.00 | 0.00 | 0.00 | 88 | 1026.2 |
| 20260905234556 | 53 | 360 | 0.0 | 0.0 | 0.00 | 0.00 | 0.00 | 87 | 1026.2 |
| 20260905233047 | 54 | 360 | 0.0 | 0.0 | 0.00 | 0.00 | 0.00 | 87 | 1026.2 |
| 20260905231545 | 54 | 360 | 0.0 | 0.0 | 0.00 | 0.00 | 0.00 | 87 | 1026.0 |
| 20260905230044 | 54 | 360 | 0.0 | 0.0 | 0.00 | 0.00 | 0.00 | 86 | 1026.0 |
| 20260905224542 | 54 | 360 | 0.0 | 0.0 | 0.00 | 0.00 | 0.00 | 86 | 1026.0 |
| 20260905223045 | 54 | 360 | 0.0 | 0.0 | 0.00 | 0.00 | 0.00 | 85 | 1025.9 |
| 20260905221538 | 55 | 360 | 0.0 | 0.0 | 0.00 | 0.00 | 0.00 | 84 | 1025.7 |
| 20260905220038 | 55 | 360 | 0.0 | 0.0 | 0.00 | 0.00 | 0.00 | 84 | 1025.7 |
| 20260905214533 | 56 | 360 | 0.0 | 0.0 | 0.00 | 0.00 | 0.00 | 83 | 1025.7 |
| 20260905213031 | 56 | 360 | 0.0 | 0.0 | 0.00 | 0.00 | 0.00 | 83 | 1025.5 |
| 20260905211529 | 56 | 360 | 0.0 | 0.0 | 0.00 | 0.00 | 0.00 | 82 | 1025.4 |
| 20260905210043 | 57 | 360 | 0.0 | 0.0 | 0.00 | 0.00 | 0.00 | 81 | 1025.3 |
| 20260905204534 | 58 | 360 | 0.0 | 0.0 | 0.00 | 0.00 | 0.00 | 80 | 1025.2 |
| 20260905203023 | 58 | 360 | 0.0 | 0.0 | 0.00 | 0.00 | 0.00 | 79 | 1025.0 |
| 20260905201521 | 58 | 360 | 0.0 | 0.0 | 0.00 | 0.00 | 0.00 | 79 | 1025.1 |
| 20260905200024 | 59 | 360 | 0.0 | 0.0 | 0.00 | 0.00 | 0.00 | 77 | 1025.0 |
| 20260905194518 | 60 | 360 | 0.0 | 0.0 | 0.00 | 0.00 | 0.00 | 76 | 1024.8 |
| 20260905193019 | 61 | 360 | 0.0 | 0.0 | 0.00 | 0.00 | 0.00 | 75 | 1024.8 |
| 20260905191520 | 62 | 360 | 0.0 | 0.0 | 0.00 | 0.00 | 0.00 | 73 | 1024.7 |
| 20260905190019 | 63 | 360 | 0.0 | 0.0 | 0.00 | 0.00 | 0.00 | 73 | 1024.6 |
| 20260905184519 | 63 | 360 | 0.0 | 0.0 | 0.00 | 0.00 | 0.00 | 71 | 1024.5 |
| 20260905183014 | 64 | 360 | 0.0 | 0.0 | 0.00 | 0.00 | 0.00 | 70 | 1024.3 |
| 20260905181516 | 65 | 360 | 0.0 | 0.0 | 0.00 | 0.00 | 0.00 | 70 | 1024.1 |
| 20260905180009 | 65 | 360 | 0.0 | 0.0 | 0.00 | 0.00 | 0.00 | 70 | 1023.9 |
| 20260905174518 | 66 | 360 | 0.0 | 0.0 | 0.00 | 0.00 | 0.00 | 69 | 1023.9 |
| 20260905173007 | 67 | 360 | 0.0 | 0.0 | 0.00 | 0.00 | 0.00 | 67 | 1023.7 |
| 20260905171505 | 67 | 360 | 0.0 | 0.0 | 0.00 | 0.00 | 0.00 | 65 | 1023.4 |
| 20260905170005 | 68 | 258 | 0.0 | 0.0 | 0.00 | 0.02 | 0.00 | 64 | 1023.4 |
| 20260905164503 | 69 | 360 | 0.0 | 0.0 | 0.00 | 0.02 | 0.00 | 63 | 1023.2 |
| 20260905163001 | 69 | 360 | 0.0 | 0.0 | 0.00 | 0.02 | 0.00 | 63 | 1023.1 |
| 20260905161559 | 69 | 360 | 0.0 | 0.0 | 0.00 | 0.02 | 0.00 | 62 | 1022.8 |
| 20260905160109 | 70 | 238 | 0.0 | 0.0 | 0.00 | 0.11 | 0.00 | 65 | 1022.8 |
| 20260905154630 | 70 | 360 | 0.0 | 0.0 | 0.00 | 0.11 | 0.00 | 63 | 1022.6 |
| 20260905153056 | 71 | 360 | 0.0 | 0.0 | 0.00 | 0.11 | 0.00 | 62 | 1022.5 |
| 20260905151555 | 71 | 294 | 0.0 | 0.0 | 0.00 | 0.11 | 0.00 | 61 | 1022.3 |